TimeEDT,TemperatureF,Dew PointF,Humidity,Sea Level PressureIn,VisibilityMPH,Wind Direction,Wind SpeedMPH,Gust SpeedMPH,PrecipitationIn,Events,Conditions,WindDirDegrees,DateUTC
12:06 AM,28.4,26.6,93,30.24,1.5,ESE,5.8,-,N/A,,Mostly Cloudy,120,2013-03-19 04:06:00
12:16 AM,28.4,26.6,93,30.23,1.8,SE,6.9,-,N/A,,Mostly Cloudy,130,2013-03-19 04:16:00
12:21 AM,28.4,26.6,93,30.23,1.2,ESE,4.6,-,N/A,,Mostly Cloudy,120,2013-03-19 04:21:00
12:39 AM,28.4,26.6,93,30.21,1.0,East,5.8,-,N/A,,Mostly Cloudy,100,2013-03-19 04:39:00
12:51 AM,28.0,26.1,92,30.97,0.8,ESE,5.8,-,N/A,,Mist,110,2013-03-19 04:51:00
1:06 AM,28.4,26.6,93,30.19,0.8,ESE,6.9,-,N/A,,Clear,110,2013-03-19 05:06:00
1:51 AM,28.0,26.1,92,30.93,0.8,East,6.9,-,N/A,,Clear,90,2013-03-19 05:51:00
2:04 AM,28.4,26.6,93,30.15,0.8,East,8.1,-,N/A,,Mostly Cloudy,80,2013-03-19 06:04:00
2:16 AM,28.4,26.6,93,30.14,0.8,ENE,5.8,-,N/A,,Mostly Cloudy,70,2013-03-19 06:16:00
2:51 AM,28.0,26.1,92,30.88,1.0,East,5.8,-,N/A,,Mist,80,2013-03-19 06:51:00
2:58 AM,28.4,26.6,93,30.11,0.8,East,6.9,-,N/A,,Mist,80,2013-03-19 06:58:00
3:07 AM,28.4,26.6,93,30.11,0.8,East,5.8,-,N/A,,Clear,90,2013-03-19 07:07:00
3:38 AM,28.4,26.6,93,30.10,1.0,East,5.8,-,N/A,,Mist,80,2013-03-19 07:38:00
3:51 AM,28.0,27.1,96,30.87,0.8,East,4.6,-,N/A,,Mist,80,2013-03-19 07:51:00
3:59 AM,28.4,26.6,93,30.10,1.0,East,4.6,-,N/A,,Mostly Cloudy,80,2013-03-19 07:59:00
4:15 AM,28.4,26.6,93,30.10,0.8,Calm,Calm,-,N/A,,Mist,0,2013-03-19 08:15:00
4:33 AM,28.4,26.6,93,30.08,1.0,ENE,4.6,-,N/A,,Mist,70,2013-03-19 08:33:00
4:51 AM,29.1,27.1,92,30.84,0.8,ENE,5.8,-,N/A,,Mist,70,2013-03-19 08:51:00
5:06 AM,28.4,26.6,93,30.05,0.8,ENE,5.8,-,N/A,,Clear,70,2013-03-19 09:06:00
5:41 AM,30.2,28.4,93,30.06,1.0,East,8.1,-,N/A,,Mist,90,2013-03-19 09:41:00
6:12 AM,30.2,28.4,93,30.06,1.0,East,10.4,-,N/A,,Mostly Cloudy,90,2013-03-19 10:12:00
6:26 AM,30.2,28.4,93,30.05,1.2,East,10.4,-,N/A,,Mostly Cloudy,90,2013-03-19 10:26:00
6:41 AM,30.2,28.4,93,30.04,1.8,East,10.4,-,N/A,,Mostly Cloudy,90,2013-03-19 10:41:00
6:51 AM,30.0,28.0,92,30.80,1.5,East,9.2,-,N/A,,Mostly Cloudy,90,2013-03-19 10:51:00
6:57 AM,30.2,28.4,93,30.03,1.0,East,11.5,-,N/A,,Mostly Cloudy,90,2013-03-19 10:57:00
7:19 AM,30.2,28.4,93,30.02,0.8,East,10.4,-,N/A,,Mostly Cloudy,80,2013-03-19 11:19:00
7:28 AM,30.2,28.4,93,30.02,1.0,East,9.2,-,N/A,,Mostly Cloudy,80,2013-03-19 11:28:00
7:51 AM,31.1,29.1,92,30.77,0.8,East,11.5,-,N/A,,Mostly Cloudy,90,2013-03-19 11:51:00
8:29 AM,30.2,28.4,93,29.99,0.8,East,4.6,-,N/A,,Mostly Cloudy,80,2013-03-19 12:29:00
8:39 AM,30.2,28.4,93,29.98,0.5,East,8.1,-,N/A,Fog,Light Freezing Fog,80,2013-03-19 12:39:00
8:51 AM,32.0,30.0,92,30.73,0.8,East,10.4,-,N/A,,Mostly Cloudy,80,2013-03-19 12:51:00
8:59 AM,32.0,30.2,93,29.97,0.5,East,6.9,-,N/A,Fog,Fog,80,2013-03-19 12:59:00
9:10 AM,32.0,30.2,93,29.97,0.8,East,9.2,-,N/A,,Mostly Cloudy,80,2013-03-19 13:10:00
9:21 AM,32.0,30.2,93,29.96,1.0,ENE,6.9,-,N/A,,Mostly Cloudy,70,2013-03-19 13:21:00
9:31 AM,32.0,30.2,93,29.96,1.2,East,8.1,-,N/A,,Mostly Cloudy,80,2013-03-19 13:31:00
9:51 AM,32.0,30.0,92,30.71,1.2,East,13.8,-,N/A,,Overcast,90,2013-03-19 13:51:00
9:59 AM,33.8,30.2,87,29.95,1.5,East,10.4,-,N/A,,Overcast,90,2013-03-19 13:59:00
10:03 AM,33.8,30.2,87,29.94,1.2,East,9.2,-,N/A,,Overcast,80,2013-03-19 14:03:00
10:12 AM,33.8,30.2,87,29.94,1.0,East,9.2,-,N/A,,Overcast,80,2013-03-19 14:12:00
10:22 AM,33.8,30.2,87,29.94,1.0,ENE,6.9,-,N/A,,Overcast,70,2013-03-19 14:22:00
10:26 AM,33.8,30.2,87,29.94,0.8,East,10.4,-,N/A,,Mostly Cloudy,80,2013-03-19 14:26:00
10:34 AM,33.8,30.2,87,29.93,0.8,East,10.4,-,N/A,,Mostly Cloudy,80,2013-03-19 14:34:00
10:51 AM,32.9,31.1,93,30.67,0.5,East,10.4,-,N/A,Fog,Fog,80,2013-03-19 14:51:00
11:07 AM,33.8,30.2,87,29.90,0.8,East,11.5,18.4,N/A,,Mist,80,2013-03-19 15:07:00
11:14 AM,33.8,30.2,87,29.89,1.0,East,13.8,18.4,N/A,,Clear,80,2013-03-19 15:14:00
11:24 AM,33.8,30.2,87,29.89,0.8,Variable,5.8,-,N/A,,Overcast,0,2013-03-19 15:24:00
11:37 AM,33.8,30.2,87,29.89,1.0,ENE,8.1,18.4,N/A,,Overcast,70,2013-03-19 15:37:00
11:51 AM,32.9,31.1,93,30.63,1.0,East,12.7,18.4,N/A,,Overcast,80,2013-03-19 15:51:00
11:58 AM,33.8,30.2,87,29.87,1.0,East,11.5,-,N/A,,Mist,80,2013-03-19 15:58:00
12:09 PM,33.8,30.2,87,29.84,0.8,East,18.4,23.0,N/A,,Mist,80,2013-03-19 16:09:00
12:28 PM,33.8,30.2,87,29.85,0.8,ENE,9.2,18.4,N/A,,Mist,70,2013-03-19 16:28:00
12:44 PM,33.8,30.2,87,29.83,0.8,East,11.5,18.4,N/A,,Mist,90,2013-03-19 16:44:00
12:51 PM,32.9,31.1,93,30.58,1.0,East,10.4,-,N/A,,Mist,80,2013-03-19 16:51:00
1:08 PM,33.8,30.2,87,29.82,1.2,East,11.5,20.7,N/A,,Mostly Cloudy,80,2013-03-19 17:08:00
1:11 PM,33.8,30.2,87,29.81,1.0,ENE,12.7,20.7,N/A,,Mostly Cloudy,60,2013-03-19 17:11:00
1:51 PM,32.9,31.1,93,30.53,1.0,ENE,10.4,-,N/A,,Mostly Cloudy,70,2013-03-19 17:51:00
2:01 PM,33.8,30.2,87,29.77,0.8,NE,8.1,-,N/A,,Mostly Cloudy,50,2013-03-19 18:01:00
2:17 PM,33.8,30.2,87,29.81,1.0,North,5.8,-,N/A,,Mostly Cloudy,10,2013-03-19 18:17:00
2:27 PM,33.8,30.2,87,29.81,0.5,North,9.2,-,N/A,Fog,Fog,350,2013-03-19 18:27:00
2:39 PM,33.8,30.2,87,29.81,0.2,North,9.2,-,N/A,Fog,Fog,350,2013-03-19 18:39:00
2:51 PM,32.9,31.1,93,30.57,0.2,North,6.9,-,N/A,Fog,Fog,360,2013-03-19 18:51:00
3:27 PM,32.0,30.2,93,29.78,0.5,North,4.6,-,N/A,Fog,Fog,10,2013-03-19 19:27:00
3:42 PM,33.8,30.2,87,29.77,0.5,NNE,8.1,-,N/A,Fog,Fog,20,2013-03-19 19:42:00
3:51 PM,32.0,31.1,96,30.51,0.5,NE,9.2,-,N/A,Fog,Fog,40,2013-03-19 19:51:00
3:59 PM,32.0,30.2,93,29.73,0.2,NE,9.2,-,N/A,Fog,Fog,40,2013-03-19 19:59:00
4:11 PM,32.0,30.2,93,29.68,0.2,ENE,11.5,19.6,N/A,Fog,Fog,70,2013-03-19 20:11:00
4:19 PM,32.0,30.2,93,29.70,0.5,NE,8.1,-,N/A,Fog,Fog,50,2013-03-19 20:19:00
4:27 PM,33.8,30.2,87,29.70,0.8,NNE,6.9,-,N/A,,Mist,30,2013-03-19 20:27:00
4:42 PM,33.8,30.2,87,29.69,0.5,NE,6.9,-,N/A,Fog,Fog,50,2013-03-19 20:42:00
4:51 PM,32.9,31.1,93,30.45,0.5,NE,9.2,-,N/A,Fog,Fog,50,2013-03-19 20:51:00
4:56 PM,33.8,30.2,87,29.69,0.8,ENE,10.4,-,N/A,,Mist,60,2013-03-19 20:56:00
4:58 PM,33.8,30.2,87,29.69,1.0,NE,9.2,-,N/A,,Mist,40,2013-03-19 20:58:00
5:02 PM,33.8,30.2,87,29.68,1.5,ENE,9.2,16.1,N/A,,Mostly Cloudy,60,2013-03-19 21:02:00
5:10 PM,33.8,30.2,87,29.68,3.0,NNE,8.1,20.7,0.00,Snow,Light Snow,30,2013-03-19 21:10:00
5:51 PM,32.9,30.0,89,30.44,2.5,NNE,9.2,17.3,0.00,Snow,Light Snow,30,2013-03-19 21:51:00
6:02 PM,33.8,30.2,87,29.69,1.5,North,6.9,-,0.00,Snow,Light Snow,10,2013-03-19 22:02:00
6:09 PM,32.0,30.2,93,29.68,1.0,NNE,5.8,-,0.00,Snow,Light Snow,20,2013-03-19 22:09:00
6:30 PM,32.0,30.2,93,29.67,1.2,NNE,6.9,-,0.00,Snow,Light Snow,20,2013-03-19 22:30:00
6:42 PM,32.0,30.2,93,29.67,1.2,North,6.9,-,0.00,Snow,Light Snow,10,2013-03-19 22:42:00
6:51 PM,32.0,30.0,92,30.43,1.0,North,5.8,-,0.01,Snow,Light Snow,360,2013-03-19 22:51:00
7:13 PM,32.0,30.2,93,29.68,1.2,North,8.1,-,0.00,Snow,Light Snow,360,2013-03-19 23:13:00
7:22 PM,32.0,30.2,93,29.67,1.5,North,8.1,-,0.00,Snow,Light Snow,360,2013-03-19 23:22:00
7:33 PM,30.2,28.4,93,29.69,1.2,NNW,9.2,-,0.00,Snow,Light Snow,340,2013-03-19 23:33:00
7:42 PM,30.2,28.4,93,29.68,1.0,North,8.1,-,0.01,Snow,Light Snow,360,2013-03-19 23:42:00
7:51 PM,31.1,29.1,92,30.43,1.2,North,6.9,-,0.01,Snow,Light Snow,350,2013-03-19 23:51:00
8:10 PM,30.2,28.4,93,29.68,1.5,North,10.4,-,0.00,Snow,Light Snow,360,2013-03-20 00:10:00
8:27 PM,30.2,28.4,93,29.68,1.2,North,10.4,17.3,0.00,Snow,Light Snow,350,2013-03-20 00:27:00
8:51 PM,30.0,28.0,92,30.45,1.2,NNW,9.2,-,0.01,,Overcast,340,2013-03-20 00:51:00
8:58 PM,30.2,26.6,86,29.70,1.5,North,11.5,16.1,N/A,,Overcast,360,2013-03-20 00:58:00
9:33 PM,28.4,26.6,93,29.72,2.0,NNW,12.7,-,N/A,,Overcast,330,2013-03-20 01:33:00
9:43 PM,28.4,26.6,93,29.72,3.0,NNW,10.4,-,N/A,,Overcast,340,2013-03-20 01:43:00
9:51 PM,29.1,26.1,88,30.48,3.0,NNW,12.7,-,N/A,,Mostly Cloudy,340,2013-03-20 01:51:00
10:04 PM,28.4,26.6,93,29.72,2.0,NNW,10.4,-,N/A,,Overcast,340,2013-03-20 02:04:00
10:11 PM,28.4,24.8,86,29.72,1.8,NNW,10.4,-,N/A,,Overcast,340,2013-03-20 02:11:00
10:21 PM,28.4,24.8,86,29.72,2.5,NNW,11.5,-,N/A,,Overcast,340,2013-03-20 02:21:00
10:26 PM,28.4,24.8,86,29.73,3.0,NNW,12.7,-,N/A,,Overcast,330,2013-03-20 02:26:00
10:34 PM,28.4,24.8,86,29.72,4.0,NNW,12.7,-,N/A,,Overcast,340,2013-03-20 02:34:00
10:51 PM,27.1,23.0,84,30.48,8.0,NNW,13.8,-,N/A,,Mostly Cloudy,340,2013-03-20 02:51:00
11:51 PM,26.1,22.1,85,30.47,9.0,NNW,11.5,-,N/A,,Scattered Clouds,340,2013-03-20 03:51:00